GW2033 Weather Reports


Display with metric or nautical units.
time (UTC)temp
F
wind
direction
speed
MPH
gust
MPH
rain 1hr
in
rain 24hr
in
rain mn
in
humidity
%
barometer
mb
20260507153453 61 10 5.0 11.0 0.00 0.00 0.00 55 1018.7
20260507152949 60 134 5.0 15.0 0.00 0.00 0.00 56 1018.7
20260507152445 60 329 2.0 9.0 0.00 0.00 0.00 56 1018.8
20260507151941 60 141 3.0 12.0 0.00 0.00 0.00 55 1018.8
20260507151438 60 62 3.0 8.0 0.00 0.00 0.00 59 1019.1
20260507150934 60 151 0.0 11.0 0.00 0.00 0.00 58 1019.1
20260507150432 59 119 3.0 15.0 0.00 0.00 0.00 59 1019.1
20260507145928 59 137 3.0 8.0 0.00 0.00 0.00 60 1019.0
20260507145424 59 178 2.0 9.0 0.00 0.00 0.00 61 1019.1
20260507144921 58 115 2.0 11.0 0.00 0.00 0.00 62 1019.1
20260507144418 58 135 4.0 11.0 0.00 0.00 0.00 61 1019.2
20260507143915 58 127 3.0 8.0 0.00 0.00 0.00 62 1019.4
20260507143412 58 112 4.0 12.0 0.00 0.00 0.00 63 1019.2
20260507142908 58 128 3.0 12.0 0.00 0.00 0.00 62 1019.5
20260507142404 57 119 2.0 9.0 0.00 0.00 0.00 63 1019.4
20260507141902 56 187 3.0 10.0 0.00 0.00 0.00 65 1019.2
20260507141358 56 12 4.0 6.0 0.00 0.00 0.00 66 1019.5
20260507140854 56 183 0.0 8.0 0.00 0.00 0.00 67 1019.4
20260507140351 55 147 3.0 8.0 0.00 0.00 0.00 69 1019.5
20260507135849 55 225 2.0 5.0 0.00 0.00 0.00 69 1019.7
20260507135346 55 133 5.0 7.0 0.00 0.00 0.00 69 1019.5
20260507134843 55 112 3.0 7.0 0.00 0.00 0.00 70 1019.5
20260507134339 55 149 3.0 6.0 0.00 0.00 0.00 71 1019.6
20260507133835 54 7 0.0 7.0 0.00 0.00 0.00 72 1019.6
20260507133331 53 345 2.0 5.0 0.00 0.00 0.00 74 1019.6
20260507132830 53 106 2.0 7.0 0.00 0.00 0.00 76 1019.7
20260507132325 52 28 2.0 6.0 0.00 0.00 0.00 77 1020.0
20260507131823 51 32 2.0 11.0 0.00 0.00 0.00 79 1019.8
20260507131319 50 60 1.0 5.0 0.00 0.00 0.00 81 1019.7
20260507130816 50 202 2.0 5.0 0.00 0.00 0.00 82 1019.7
20260507130314 49 156 0.0 5.0 0.00 0.00 0.00 83 1019.8
20260507125813 49 104 3.0 5.0 0.00 0.00 0.00 84 1019.7
20260507125310 48 137 2.0 3.0 0.00 0.00 0.00 84 1019.7
20260507124807 48 130 1.0 4.0 0.00 0.00 0.00 85 1019.6
20260507124303 48 116 1.0 4.0 0.00 0.00 0.00 85 1019.8
20260507123802 48 121 0.0 3.0 0.00 0.00 0.00 86 1019.6
20260507123259 47 187 0.0 4.0 0.00 0.00 0.00 87 1019.5
20260507122754 46 106 0.0 3.0 0.00 0.00 0.00 88 1019.5
20260507122250 46 95 0.0 3.0 0.00 0.00 0.00 90 1019.7
20260507121746 45 136 2.0 3.0 0.00 0.00 0.00 91 1019.7
20260507121242 45 89 0.0 3.0 0.00 0.00 0.00 91 1019.6
20260507120738 44 89 0.0 2.0 0.00 0.00 0.00 91 1019.8
20260507120235 44 97 0.0 3.0 0.00 0.00 0.00 91 1019.7
20260507115731 44 89 0.0 2.0 0.00 0.00 0.00 91 1019.5
20260507115222 44 119 0.0 2.0 0.00 0.00 0.00 91 1019.5
20260507114717 44 102 1.0 3.0 0.00 0.00 0.00 91 1019.2
20260507114215 44 119 2.0 3.0 0.00 0.00 0.00 91 1019.4
20260507113712 44 110 1.0 2.0 0.00 0.00 0.00 90 1019.2
20260507113209 44 300 0.0 2.0 0.00 0.00 0.00 90 1019.2
20260507112707 44 89 0.0 2.0 0.00 0.00 0.00 90 1019.2
20260507112203 44 129 0.0 1.0 0.00 0.00 0.00 89 1019.4
20260507111701 44 83 0.0 2.0 0.00 0.00 0.00 88 1019.2
20260507111158 44 89 0.0 2.0 0.00 0.00 0.00 89 1019.5
20260507110653 44 104 0.0 2.0 0.00 0.00 0.00 88 1019.2
20260507110151 44 131 0.0 2.0 0.00 0.00 0.00 88 1019.2
20260507105647 44 99 0.0 3.0 0.00 0.00 0.00 87 1019.2
20260507105143 45 92 0.0 2.0 0.00 0.00 0.00 87 1019.2
20260507104641 45 118 1.0 2.0 0.00 0.00 0.00 86 1019.2
20260507104137 46 135 0.0 2.0 0.00 0.00 0.00 85 1019.0
20260507103633 46 89 0.0 1.0 0.00 0.00 0.00 85 1019.4
20260507103130 46 135 0.0 2.0 0.00 0.00 0.00 85 1019.4
20260507102626 46 124 1.0 2.0 0.00 0.00 0.00 84 1019.5
20260507102123 46 125 0.0 2.0 0.00 0.00 0.00 84 1019.6
20260507101619 46 89 0.0 2.0 0.00 0.00 0.00 83 1019.6
20260507101115 47 121 0.0 2.0 0.00 0.00 0.00 83 1019.7
20260507100612 47 89 2.0 3.0 0.00 0.00 0.00 83 1019.8
20260507100110 47 102 0.0 2.0 0.00 0.00 0.00 82 1019.7
20260507095608 47 129 1.0 2.0 0.00 0.00 0.00 81 1019.8
20260507095104 48 138 0.0 2.0 0.00 0.00 0.00 80 1019.7
20260507094600 48 88 1.0 3.0 0.00 0.00 0.00 80 1019.8
20260507094057 48 105 0.0 2.0 0.00 0.00 0.00 78 1019.8
20260507093555 49 329 1.0 3.0 0.00 0.00 0.00 78 1019.9
20260507093054 49 14 0.0 3.0 0.00 0.00 0.00 77 1019.7
20260507092549 50 108 2.0 5.0 0.00 0.00 0.00 76 1019.8
20260507092046 49 78 0.0 3.0 0.00 0.00 0.00 77 1019.8
20260507091543 49 340 2.0 6.0 0.00 0.00 0.00 78 1019.8
20260507091039 48 302 3.0 5.0 0.00 0.00 0.00 80 1019.9
20260507090535 48 121 1.0 3.0 0.00 0.00 0.00 82 1019.7
20260507090032 47 290 1.0 3.0 0.00 0.00 0.00 83 1019.8
20260507085529 47 29 0.0 2.0 0.00 0.00 0.00 83 1019.9
20260507085026 48 190 0.0 1.0 0.00 0.00 0.00 82 1019.8
20260507084522 48 76 0.0 1.0 0.00 0.00 0.00 80 1019.7
20260507084020 49 101 0.0 2.0 0.00 0.00 0.00 80 1019.7
20260507083516 49 73 0.0 2.0 0.00 0.00 0.00 79 1019.9
20260507083013 49 122 0.0 1.0 0.00 0.00 0.00 79 1020.0
20260507082509 49 89 0.0 0.0 0.00 0.00 0.00 79 1019.9
20260507082005 50 89 0.0 2.0 0.00 0.00 0.00 78 1020.1
20260507081502 50 89 0.0 1.0 0.00 0.00 0.00 77 1020.1
20260507080959 50 129 0.0 1.0 0.00 0.00 0.00 77 1020.0
20260507080454 50 103 0.0 1.0 0.00 0.00 0.00 76 1020.1
20260507075950 50 58 0.0 1.0 0.00 0.00 0.00 75 1020.0
20260507075446 50 142 0.0 2.0 0.00 0.00 0.00 75 1020.1
20260507074943 51 50 0.0 2.0 0.00 0.00 0.00 75 1020.2
20260507074440 51 62 0.0 2.0 0.00 0.00 0.00 75 1020.2
20260507073938 51 96 0.0 2.0 0.00 0.00 0.00 74 1020.2
20260507073434 51 65 0.0 2.0 0.00 0.00 0.00 74 1020.2
20260507072931 51 215 0.0 2.0 0.00 0.00 0.00 74 1020.3
20260507072428 51 137 0.0 1.0 0.00 0.00 0.00 73 1020.0
20260507071920 51 114 0.0 2.0 0.00 0.00 0.00 73 1020.2
20260507071417 51 82 0.0 2.0 0.00 0.00 0.00 73 1020.4
20260507070913 51 79 0.0 2.0 0.00 0.00 0.00 73 1020.5
20260507070411 51 125 0.0 1.0 0.00 0.00 0.00 71 1020.5
20260507065907 52 60 1.0 2.0 0.00 0.00 0.00 71 1020.5
20260507065404 52 119 1.0 2.0 0.00 0.00 0.00 71 1020.6
20260507064901 51 122 2.0 2.0 0.00 0.00 0.00 72 1020.8
20260507064359 51 89 0.0 1.0 0.00 0.00 0.00 71 1020.6
20260507063857 51 124 0.0 2.0 0.00 0.00 0.00 70 1020.7
20260507063354 51 134 0.0 2.0 0.00 0.00 0.00 70 1020.6
20260507062851 52 75 0.0 1.0 0.00 0.00 0.00 69 1020.5
20260507062347 52 89 0.0 1.0 0.00 0.00 0.00 69 1020.6
20260507061845 52 108 1.0 2.0 0.00 0.00 0.00 68 1020.5
20260507061343 52 113 0.0 2.0 0.00 0.00 0.00 68 1020.5
20260507060841 52 243 0.0 1.0 0.00 0.00 0.00 67 1020.5
20260507060338 52 216 0.0 2.0 0.00 0.00 0.00 68 1020.7
20260507055835 52 112 0.0 2.0 0.00 0.00 0.00 68 1020.5
20260507055329 52 142 0.0 2.0 0.00 0.00 0.00 68 1020.8
20260507054827 52 188 0.0 1.0 0.00 0.00 0.00 68 1020.8
20260507054322 52 205 0.0 1.0 0.00 0.00 0.00 68 1020.7
20260507053820 52 202 0.0 1.0 0.00 0.00 0.00 68 1020.6
20260507053318 52 243 0.0 1.0 0.00 0.00 0.00 70 1020.7
20260507052817 51 120 0.0 2.0 0.00 0.00 0.00 70 1020.7
20260507052313 51 133 1.0 2.0 0.00 0.00 0.00 69 1020.6
20260507051811 51 89 0.0 2.0 0.00 0.00 0.00 68 1020.7
20260507051308 51 113 0.0 2.0 0.00 0.00 0.00 67 1020.5
20260507050804 51 69 0.0 1.0 0.00 0.00 0.00 67 1020.4
20260507050301 51 130 0.0 2.0 0.00 0.00 0.00 67 1020.5
20260507045758 51 89 0.0 0.0 0.00 0.08 0.08 67 1020.5
20260507045254 51 309 0.0 2.0 0.00 0.08 0.08 67 1020.5
20260507044751 51 89 0.0 1.0 0.00 0.08 0.08 65 1020.6
20260507044248 51 46 0.0 2.0 0.00 0.08 0.08 66 1020.6
20260507043744 51 284 0.0 2.0 0.00 0.08 0.08 65 1020.6
20260507043241 51 322 0.0 2.0 0.00 0.08 0.08 66 1020.5
20260507042737 51 62 1.0 2.0 0.00 0.08 0.08 64 1020.5
20260507042232 51 269 0.0 2.0 0.00 0.08 0.08 64 1020.7
20260507041730 51 89 0.0 2.0 0.00 0.08 0.08 61 1020.6
20260507041226 52 283 0.0 1.0 0.00 0.08 0.08 61 1020.5
20260507040724 53 84 0.0 1.0 0.00 0.08 0.08 57 1020.5
20260507040219 53 69 0.0 2.0 0.00 0.08 0.08 56 1020.7
20260507035715 54 89 0.0 2.0 0.00 0.08 0.08 55 1020.5
20260507035211 55 89 0.0 1.0 0.00 0.08 0.08 54 1020.9
20260507034708 55 89 0.0 2.0 0.00 0.08 0.08 53 1020.8
20260507034206 55 74 1.0 3.0 0.00 0.08 0.08 54 1020.8
20260507033704 55 84 0.0 4.0 0.00 0.08 0.08 53 1020.8
20260507033201 55 40 2.0 4.0 0.00 0.08 0.08 53 1020.5
20260507032659 55 47 2.0 4.0 0.00 0.08 0.08 55 1020.4
20260507032154 54 70 2.0 2.0 0.00 0.08 0.08 57 1020.4
20260507031651 54 31 0.0 2.0 0.00 0.08 0.08 57 1020.7
20260507031148 54 69 0.0 2.0 0.00 0.08 0.08 57 1020.5
20260507030644 55 86 1.0 2.0 0.00 0.08 0.08 58 1020.6
20260507030142 55 43 1.0 2.0 0.00 0.08 0.08 55 1020.5
20260507025639 55 63 0.0 1.0 0.00 0.08 0.08 55 1020.5
20260507025136 55 122 0.0 2.0 0.00 0.08 0.08 55 1020.5
20260507024634 56 89 0.0 1.0 0.00 0.08 0.08 54 1020.4
20260507024131 56 1 0.0 3.0 0.00 0.08 0.08 53 1020.3
20260507023626 56 57 0.0 3.0 0.00 0.08 0.08 54 1020.4
20260507023124 56 24 2.0 3.0 0.00 0.08 0.08 52 1020.2
20260507022621 56 36 2.0 6.0 0.00 0.08 0.08 52 1020.2
20260507022116 56 62 1.0 4.0 0.00 0.08 0.08 51 1020.2
20260507021613 57 8 3.0 4.0 0.00 0.08 0.08 52 1020.2
20260507021109 56 15 2.0 6.0 0.00 0.08 0.08 52 1020.1
20260507020607 56 34 2.0 2.0 0.00 0.08 0.08 52 1020.3
20260507020103 56 319 0.0 2.0 0.00 0.08 0.08 52 1019.9
20260507015602 57 43 0.0 3.0 0.00 0.08 0.08 52 1019.9
20260507015059 57 89 0.0 3.0 0.00 0.08 0.08 51 1019.9
20260507014555 57 22 0.0 3.0 0.00 0.08 0.08 51 1019.6
20260507014051 57 68 1.0 2.0 0.00 0.08 0.08 51 1019.6
20260507013548 57 55 0.0 3.0 0.00 0.08 0.08 51 1019.4
20260507013045 57 37 1.0 3.0 0.00 0.08 0.08 50 1019.4
20260507012542 57 22 3.0 4.0 0.00 0.08 0.08 50 1019.5
20260507012038 57 52 2.0 2.0 0.00 0.08 0.08 50 1019.1
20260507011535 57 297 2.0 2.0 0.00 0.08 0.08 50 1019.4
20260507011026 57 31 4.0 5.0 0.00 0.08 0.08 49 1019.4
20260507010521 57 2 4.0 5.0 0.00 0.08 0.08 50 1019.2
20260507010018 57 302 0.0 3.0 0.00 0.08 0.08 50 1019.1
20260507005515 57 31 3.0 5.0 0.00 0.08 0.08 49 1019.5
20260507005011 57 14 2.0 5.0 0.00 0.08 0.08 50 1019.4
20260507004508 57 24 2.0 4.0 0.00 0.08 0.08 50 1019.5
20260507004006 57 52 2.0 7.0 0.00 0.08 0.08 49 1019.5
20260507003501 58 9 3.0 5.0 0.00 0.08 0.08 49 1019.2
20260507002955 58 54 2.0 8.0 0.00 0.08 0.08 50 1019.4
20260507002452 57 96 2.0 6.0 0.00 0.08 0.08 49 1019.5
20260507001944 57 3 4.0 6.0 0.00 0.08 0.08 49 1019.4
20260507001440 57 320 1.0 7.0 0.00 0.08 0.08 49 1019.2
20260507000938 58 350 3.0 8.0 0.00 0.08 0.08 49 1019.5
20260507000435 58 20 4.0 10.0 0.00 0.08 0.08 48 1019.1
20260506235929 59 36 5.0 7.0 0.00 0.08 0.08 48 1019.2
20260506235427 58 27 4.0 9.0 0.00 0.08 0.08 47 1019.0
20260506234921 59 24 3.0 8.0 0.00 0.08 0.08 47 1019.1
20260506234420 58 23 5.0 12.0 0.00 0.08 0.08 47 1019.2
20260506233917 59 25 7.0 15.0 0.00 0.08 0.08 46 1018.9
20260506233414 59 26 6.0 10.0 0.00 0.08 0.08 46 1019.0
20260506232910 59 35 5.0 10.0 0.00 0.08 0.08 46 1019.0
20260506232406 59 46 3.0 9.0 0.00 0.08 0.08 46 1019.0
20260506231902 59 28 4.0 10.0 0.00 0.08 0.08 45 1019.0
20260506231400 59 15 5.0 6.0 0.00 0.08 0.08 46 1018.8
20260506230857 59 20 6.0 9.0 0.00 0.08 0.08 44 1018.7
20260506230354 59 46 2.0 11.0 0.00 0.08 0.08 46 1019.0
20260506225850 60 19 3.0 5.0 0.00 0.08 0.08 45 1018.8
20260506225348 60 25 5.0 9.0 0.00 0.08 0.08 44 1018.8
20260506224844 61 14 5.0 12.0 0.00 0.08 0.08 43 1018.8
20260506224342 59 14 7.0 8.0 0.00 0.08 0.08 45 1018.6
20260506223838 60 29 3.0 8.0 0.00 0.08 0.08 45 1018.8
20260506223333 59 354 5.0 11.0 0.00 0.08 0.08 44 1018.7
20260506222831 59 9 5.0 12.0 0.00 0.08 0.08 45 1018.8
20260506222326 60 49 2.0 5.0 0.00 0.08 0.08 45 1018.7
20260506221825 59 19 4.0 9.0 0.00 0.08 0.08 45 1018.6
20260506221322 59 33 4.0 9.0 0.00 0.08 0.08 44 1018.7
20260506220819 60 42 4.0 13.0 0.00 0.08 0.08 45 1018.7
20260506220314 60 358 4.0 11.0 0.00 0.08 0.08 45 1018.7
20260506215811 60 74 2.0 8.0 0.00 0.08 0.08 45 1018.6
20260506215307 61 17 7.0 8.0 0.00 0.08 0.08 44 1018.9
20260506214803 62 48 2.0 5.0 0.00 0.08 0.08 44 1018.6
20260506214300 62 76 5.0 11.0 0.00 0.08 0.08 43 1018.8
20260506213758 61 305 4.0 8.0 0.00 0.08 0.08 42 1018.8
20260506213254 59 44 4.0 10.0 0.00 0.08 0.08 44 1018.9
20260506212752 61 76 2.0 6.0 0.00 0.08 0.08 44 1018.7
20260506212248 62 52 4.0 6.0 0.00 0.08 0.08 44 1018.9
20260506211743 62 96 3.0 5.0 0.00 0.08 0.08 42 1019.0
20260506211240 61 35 6.0 8.0 0.00 0.08 0.08 43 1019.1
20260506210737 60 110 2.0 6.0 0.00 0.08 0.08 43 1019.1
20260506210233 60 101 3.0 10.0 0.00 0.08 0.08 45 1019.4
20260506205730 60 113 2.0 11.0 0.00 0.08 0.08 44 1019.4
20260506205225 60 356 5.0 10.0 0.00 0.08 0.08 41 1019.1
20260506204718 60 12 3.0 7.0 0.00 0.08 0.08 42 1019.5
20260506204215 61 358 10.0 10.0 0.00 0.08 0.08 42 1019.4
20260506203713 60 2 6.0 10.0 0.00 0.08 0.08 45 1019.6
20260506203210 60 114 2.0 10.0 0.00 0.08 0.08 45 1019.7
20260506202708 61 16 4.0 8.0 0.00 0.08 0.08 45 1019.8
20260506202203 60 25 3.0 6.0 0.00 0.08 0.08 45 1020.0
20260506201700 59 17 4.0 9.0 0.00 0.08 0.08 44 1020.0
20260506201156 59 344 5.0 10.0 0.00 0.08 0.08 43 1020.1
20260506200653 61 65 3.0 4.0 0.00 0.08 0.08 44 1020.1
20260506200150 61 38 7.0 8.0 0.00 0.08 0.08 45 1019.9
20260506195647 60 83 3.0 6.0 0.00 0.08 0.08 43 1020.1
20260506195143 60 47 5.0 12.0 0.00 0.08 0.08 44 1020.1
20260506194641 59 71 0.0 7.0 0.00 0.08 0.08 46 1020.1
20260506194137 59 22 6.0 11.0 0.00 0.08 0.08 45 1020.4
20260506193635 60 84 3.0 8.0 0.00 0.08 0.08 46 1020.2
20260506193132 59 350 1.0 14.0 0.00 0.08 0.08 47 1020.1
20260506192628 59 336 6.0 11.0 0.00 0.08 0.08 47 1020.3
20260506192124 58 27 5.0 11.0 0.00 0.08 0.08 48 1020.3
20260506191621 59 30 11.0 14.0 0.00 0.08 0.08 50 1020.2
20260506191117 58 3 11.0 13.0 0.00 0.08 0.08 48 1020.3
20260506190615 58 354 4.0 8.0 0.00 0.08 0.08 48 1020.3
20260506190112 58 0 5.0 15.0 0.00 0.08 0.08 48 1020.4
20260506185609 59 52 3.0 9.0 0.00 0.08 0.08 49 1020.1
20260506185105 58 346 10.0 14.0 0.00 0.08 0.08 48 1020.2
20260506184602 59 14 14.0 16.0 0.00 0.08 0.08 48 1020.4
20260506184100 59 82 2.0 9.0 0.00 0.08 0.08 53 1020.3
20260506183556 58 7 7.0 16.0 0.00 0.08 0.08 49 1020.4
20260506183052 60 46 6.0 6.0 0.00 0.08 0.08 48 1020.6
20260506182550 59 68 3.0 10.0 0.00 0.08 0.08 51 1020.4
20260506182047 56 52 6.0 13.0 0.00 0.08 0.08 48 1020.7
20260506181545 56 22 10.0 13.0 0.00 0.08 0.08 51 1020.7
20260506181041 57 30 8.0 14.0 0.00 0.08 0.08 51 1020.9
20260506180538 56 23 9.0 16.0 0.00 0.08 0.08 55 1020.8
20260506180034 56 33 4.0 7.0 0.00 0.08 0.08 55 1021.0
20260506175531 56 39 7.0 17.0 0.00 0.08 0.08 52 1021.0
20260506175027 56 53 3.0 17.0 0.00 0.08 0.08 54 1021.0
20260506174526 55 77 2.0 7.0 0.00 0.08 0.08 57 1020.9
20260506174022 55 359 10.0 15.0 0.00 0.08 0.08 54 1021.2
20260506173520 55 358 8.0 9.0 0.00 0.08 0.08 56 1021.3
20260506173017 55 13 6.0 11.0 0.00 0.08 0.08 56 1021.3
20260506172514 55 50 2.0 15.0 0.00 0.08 0.08 58 1021.2
20260506172010 55 43 4.0 7.0 0.00 0.08 0.08 59 1021.2
20260506171508 55 83 5.0 13.0 0.00 0.08 0.08 60 1021.2
20260506171005 54 20 6.0 14.0 0.00 0.08 0.08 63 1021.0
20260506170501 54 28 11.0 14.0 0.00 0.08 0.08 62 1020.9
20260506165954 54 23 9.0 16.0 0.00 0.08 0.08 63 1021.2
20260506165452 53 24 6.0 13.0 0.00 0.08 0.08 64 1021.1
20260506164942 53 35 5.0 10.0 0.00 0.08 0.08 66 1021.2
20260506164439 53 11 6.0 10.0 0.00 0.08 0.08 65 1021.1
20260506163937 53 12 6.0 14.0 0.00 0.08 0.08 65 1021.0
20260506163432 52 20 7.0 15.0 0.00 0.08 0.08 67 1021.1
20260506162927 52 1 10.0 18.0 0.00 0.08 0.08 66 1020.6
20260506162424 52 20 7.0 16.0 0.00 0.08 0.08 67 1021.0
20260506161916 52 58 3.0 7.0 0.00 0.08 0.08 71 1021.0
20260506161414 51 2 7.0 12.0 0.00 0.08 0.08 71 1021.0
20260506160905 51 7 8.0 16.0 0.00 0.08 0.08 70 1021.1
20260506160401 50 4 4.0 14.0 0.00 0.08 0.08 71 1021.1
20260506155900 51 6 8.0 12.0 0.00 0.08 0.08 69 1021.1
20260506155357 51 17 11.0 11.0 0.00 0.08 0.08 73 1021.0